Ketchikan, AK

3:27 AM AKST on January 21, 2019 (GMT -0900)
Ketchikan International

Weather History for PAKT - December, 2018

Change the Weather History Date:

Friday, December 14, 2018

  Actual Average Record
Temperature  
Mean Temperature 32 °F -  
Max Temperature 35 °F 40 °F 58 °F (1962)
Min Temperature 28 °F 31 °F 8 °F (1964)
Degree Days  
Heating Degree Days 34    
Moisture  
Dew Point 26 °F    
Average Humidity 77    
Maximum Humidity 96    
Minimum Humidity 60    
Precipitation  
Precipitation 0.00 in - - ()
Sea Level Pressure  
Sea Level Pressure 29.42 in    
Wind  
Wind Speed 9 mph (NW)    
Max Wind Speed 17 mph    
Max Gust Speed 26 mph    
Visibility 10 miles    
Events      
Averages and records for this station are not official NWS values.
T = Trace of Precipitation, MM = Missing Value Source: NWS Daily Summary

Daily Weather History Graph

Daily Weather History Graph

Search for Another Location

Airport or City:

Astronomy

Dec. 14, 2018 Rise Set
Actual Time 8:07 AM AKST 3:15 PM AKST
Civil Twilight 7:21 AM AKST 4:01 PM AKST
Nautical Twilight 6:33 AM AKST 4:50 PM AKST
Astronomical Twilight 5:48 AM AKST 5:34 PM AKST
Moon 12:22 PM AKST (12/14) 11:03 PM AKST (12/14)
Length of Visible Light 8h 40m
Length of Day
7h 08m
Waxing Crescent, 44% of the Moon is Illuminated
Dec 14
Waxing Crescent
Dec 15
First Quarter
Dec 22
Full
Dec 29
Last Quarter
Jan 5
New

Hourly Weather History & Observations

Time (AKST) Temp. Windchill Dew Point Humidity Pressure Visibility Wind Dir Wind Speed Gust Speed Precip Events Conditions
12:53 AM 33.1 °F 26.9 °F 32.0 °F 96% 29.59 in 10.0 mi NW 6.9 mph - N/A   Scattered Clouds
1:53 AM 33.1 °F 28.7 °F 30.9 °F 92% 29.55 in 10.0 mi WNW 4.6 mph - N/A   Clear
2:53 AM 34.0 °F 25.0 °F 30.9 °F 89% 29.52 in 10.0 mi NW 12.7 mph - N/A   Scattered Clouds
3:06 AM 34.0 °F 26.6 °F 30.9 °F 89% 29.51 in 10.0 mi NW 9.2 mph - N/A   Mostly Cloudy
3:32 AM 34.0 °F 26.0 °F 30.0 °F 85% 29.49 in 10.0 mi NW 10.4 mph - N/A   Scattered Clouds
3:53 AM 34.0 °F 28.0 °F 30.0 °F 85% 29.51 in 10.0 mi NW 6.9 mph - N/A   Scattered Clouds
4:06 AM 34.0 °F 26.0 °F 30.0 °F 85% 29.48 in 10.0 mi NW 10.4 mph - N/A   Mostly Cloudy
5:53 AM 34.0 °F 25.0 °F 28.9 °F 82% 29.40 in 10.0 mi NW 12.7 mph - N/A   Mostly Cloudy
6:21 AM 33.8 °F 24.8 °F 28.4 °F 81% 29.37 in 10.0 mi NW 12.7 mph 20.7 mph N/A   Scattered Clouds
6:53 AM 33.8 °F 23.5 °F 28.4 °F 81% 29.36 in 10.0 mi NW 16.1 mph 23.0 mph N/A   Mostly Cloudy
7:53 AM 33.8 °F 24.8 °F 26.6 °F 75% 29.36 in 10.0 mi NW 12.7 mph - N/A   Scattered Clouds
8:53 AM 33.8 °F 24.8 °F 26.6 °F 75% 29.34 in 10.0 mi NW 12.7 mph 21.9 mph N/A   Clear
9:53 AM 33.8 °F 23.5 °F 26.6 °F 75% 29.33 in 10.0 mi NW 16.1 mph 25.3 mph N/A   Partly Cloudy
10:53 AM 33.8 °F 23.2 °F 26.6 °F 75% 29.31 in 10.0 mi NW 17.3 mph 26.5 mph N/A   Partly Cloudy
11:53 AM 35.6 °F 26.6 °F 26.6 °F 70% 29.31 in 10.0 mi NW 13.8 mph 23.0 mph N/A   Clear
12:53 PM 35.6 °F 25.9 °F 26.6 °F 70% 29.30 in 10.0 mi NW 16.1 mph 23.0 mph N/A   Clear
1:53 PM 35.6 °F 28.6 °F 24.8 °F 65% 29.29 in 10.0 mi NNW 9.2 mph 19.6 mph N/A   Clear
2:53 PM 35.6 °F 28.6 °F 24.8 °F 65% 29.30 in 10.0 mi NW 9.2 mph - N/A   Clear
3:53 PM 35.6 °F 27.5 °F 23.0 °F 60% 29.34 in 10.0 mi NW 11.5 mph - N/A   Clear
4:53 PM 33.8 °F 27.0 °F 23.0 °F 65% 29.36 in 10.0 mi WNW 8.1 mph - N/A   Clear
5:53 PM 33.8 °F 27.7 °F 23.0 °F 65% 29.38 in 10.0 mi WNW 6.9 mph - N/A   Clear
6:53 PM 32.0 °F 25.6 °F 23.0 °F 69% 29.41 in 10.0 mi WNW 6.9 mph - N/A   Clear
7:53 PM 30.9 °F 27.5 °F 23.0 °F 72% 29.43 in 10.0 mi WNW 3.5 mph - N/A   Clear
8:53 PM 30.0 °F 25.2 °F 21.9 °F 72% 29.47 in 10.0 mi ESE 4.6 mph - N/A   Clear
9:53 PM 28.0 °F 24.2 °F 21.9 °F 78% 29.51 in 10.0 mi SSE 3.5 mph - N/A   Clear
10:53 PM 28.9 °F 23.9 °F 23.0 °F 78% 29.55 in 10.0 mi SE 4.6 mph - N/A   Clear
11:53 PM 28.0 °F 22.8 °F 21.9 °F 78% 29.59 in 10.0 mi SE 4.6 mph - N/A   Clear